This is the latest recevied weather packets stored in our database for station/object KC9DRE. If no packets are shown the sender has not sent any weather packets the latest 10 day(s).
| Time | Temp. | Humidity | Pressure | Rain* | Wind** | Luminosity | Snow |
|---|---|---|---|---|---|---|---|
| 1787581289 | 23.33° C | 57% | 1019 hPa | 0 mm | - | 455 W/m² | - |
| 1787580984 | 22.78° C | 62% | 1018.9 hPa | 0 mm | - | 439 W/m² | - |
| 1787580680 | 22.22° C | 62% | 1019.1 hPa | 0 mm | - | 422 W/m² | - |
| 1787580375 | 22.22° C | 59% | 1019 hPa | 0 mm | - | 429 W/m² | - |
| 1787580070 | 22.78° C | 64% | 1019 hPa | 0 mm | - | 438 W/m² | - |
| 1787579769 | 22.78° C | 63% | 1019 hPa | 0 mm | - | 424 W/m² | - |
| 1787579464 | 22.78° C | 67% | 1018.9 hPa | 0 mm | - | 423 W/m² | - |
| 1787579160 | 22.78° C | 68% | 1019 hPa | 0 mm | - | 421 W/m² | - |
| 1787578855 | 22.78° C | 74% | 1019 hPa | 0 mm | - | 422 W/m² | - |
| 1787578551 | 22.22° C | 76% | 1019 hPa | 0 mm | - | 409 W/m² | - |
| 1787578250 | 21.11° C | 85% | 1018.9 hPa | 0 mm | - | 402 W/m² | - |
| 1787577946 | 19.44° C | 93% | 1018.9 hPa | 0 mm | - | 377 W/m² | - |
| 1787577641 | 18.89° C | 96% | 1019.1 hPa | 0 mm | - | 351 W/m² | - |
| 1787577337 | 18.33° C | 97% | 1019.2 hPa | 0 mm | - | 310 W/m² | - |
| 1787577033 | 17.78° C | 99% | 1019 hPa | 0 mm | - | 278 W/m² | - |
| 1787576729 | 17.22° C | 99% | 1019 hPa | 0 mm | - | 253 W/m² | - |
| 1787576424 | 17.22° C | 99% | 1019 hPa | 0 mm | - | 237 W/m² | - |
| 1787576120 | 16.67° C | 99% | 1018.9 hPa | 0 mm | - | 225 W/m² | - |
| 1787575820 | 16.11° C | 99% | 1019 hPa | 0 mm | - | 221 W/m² | - |
| 1787575517 | 15.56° C | 99% | 1018.8 hPa | 0 mm | - | 106 W/m² | - |
| 1787575216 | 15° C | 99% | 1018.8 hPa | 0 mm | - | 99 W/m² | - |
| 1787574911 | 15° C | 99% | 1018.7 hPa | 0 mm | - | 103 W/m² | - |
| 1787574607 | 13.89° C | 99% | 1018.7 hPa | 0 mm | - | 121 W/m² | - |
| 1787574301 | 14.44° C | 99% | 1018.7 hPa | 0 mm | - | 80 W/m² | - |
| 1787574000 | 15° C | 99% | 1018.9 hPa | 0 mm | - | 85 W/m² | - |
* Rain latest hour (hover to see other rain measurements)
** Current wind speed in m/s (hover to see current wind gust speed)